Location: Unspecified
(0.0000°N, 0.0000°E)
Time: 06:47:45
(UTC+00:00)

N. Korean satellite - Pass Details

Date: 17 February 2018
Orbit: 458 x 513 km, 97.2° (Epoch: 24 May)

Event Time Altitude Azimuth Distance (km) Brightness Sun altitude
Rises 05:33:08 0° 39° (NE) 2,592 10.7 -10.0°
Reaches altitude 10° 05:35:47 10° 61° (ENE) 1,720 10.1 -9.3°
Maximum altitude 05:38:11 17° 101° (ESE) 1,367 10.3 -8.8°
Drops below altitude 10° 05:40:37 10° 142° (SE) 1,736 10.2 -8.2°
Sets 05:43:19 0° 163° (SSE) 2,629 10.7 -7.5°
